RH
73 68 74 70 39 36 39 44 48 47 45 45 43 37 32 30 29 23 31 37 41 42 37 26 19 14 11 10 8 7 7 7 13 18 23 18 15 8 5 5 5 5 7 5 3
77 76 71 72 69 36 42 47 49 50 54 54 54 45 39 42 39 31 36 41 45 50 56 55 44 28 17 14 11 8 8 18 21 23 25 18 6 5 4 5 4 4 4 4 4
84 77 76 74 72 46 33 44 51 52 53 54 60 55 42 41 36 39 48 54 56 58 59 56 47 28 16 12 12 14 10 17 24 18 15 6 5 6 6 6 5 4 4 4 4
85 80 80 81 82 76 43 42 50 50 49 54 54 59 52 43 49 52 50 54 56 59 58 44 33 18 14 20 23 18 12 10 8 7 7 7 10 13 17 17 13 9 6 5 4
96 91 88 88 79 78 77 53 47 52 52 56 60 60 59 49 50 46 51 59 63 61 64 49 24 16 17 30 24 14 13 15 40 46 42 28 25 19 30 22 15 6 7 8 6
63 84 91 80 70 77 79 74 43 55 57 63 64 66 62 60 56 57 59 60 64 72 76 60 33 38 51 63 48 49 78 89 91 86 74 55 41 38 45 26 8 8 8 8 9
40 45 82 58 57 65 77 80 44 57 60 65 71 71 67 62 58 57 59 68 72 76 80 79 80 82 78 75 71 84 89 86 82 76 70 67 61 53 29 14 12 8 8 12 13
20 32 39 70 63 45 94 78 47 61 67 69 76 72 52 59 60 64 66 72 75 82 87 90 90 91 94 97 100 100 99 82 74 73 50 24 20 14 13 12 10 9 11 14 23
5 7 12 19 35 32 94 49 49 52 82 86 77 72 63 55 61 67 69 68 73 76 83 80 78 87 93 100 100 99 86 57 44 26 22 22 12 8 9 9 11 19 30 26 15
2 4 6 8 19 22 34 40 42 49 81 87 77 76 77 78 58 67 62 68 67 58 51 48 50 77 98 98 96 92 65 33 30 29 36 26 15 10 12 16 24 19 27 19 6
3 3 4 7 9 17 23 40 39 83 98 88 79 73 73 71 68 70 60 64 64 52 45 45 55 81 80 48 48 60 71 58 24 21 20 18 16 16 23 32 32 32 14 10 3
2 3 4 5 8 15 26 45 99 94 84 81 67 69 83 88 86 65 59 70 66 51 51 55 56 50 40 40 30 24 25 23 23 21 21 20 18 30 36 44 31 17 12 4 3
3 3 3 5 9 13 28 83 98 83 62 77 82 95 91 87 68 60 61 74 64 49 44 46 38 34 24 21 25 20 32 30 30 23 14 41 41 50 32 24 25 14 5 4 3
3 3 3 4 12 23 40 44 63 71 82 98 98 88 91 69 60 73 78 76 78 61 36 33 33 31 19 16 19 41 43 29 17 18 60 50 66 54 55 39 21 4 4 3 12
4 4 4 5 11 40 30 60 58 91 95 77 76 89 65 93 96 82 82 83 86 80 63 42 42 39 36 34 28 41 67 52 35 47 69 67 72 76 55 41 5 4 4 7 29
5 5 6 10 16 32 38 57 77 91 94 95 98 92 94 91 94 84 84 84 79 80 77 68 51 35 29 31 47 76 84 58 58 66 97 79 74 64 57 27 4 4 4 20 60
5 6 6 5 18 29 58 78 88 98 89 98 88 83 85 85 72 82 83 80 84 82 93 62 53 50 49 58 74 95 81 84 98 100 95 68 52 43 57 35 4 4 6 34 79
6 6 8 10 16 32 98 80 84 87 98 95 97 83 72 96 91 88 86 81 76 84 76 76 56 51 70 66 41 24 79 62 84 83 60 46 51 62 49 7 5 5 20 57 86
6 7 10 18 26 34 95 94 87 99 99 96 94 85 99 99 95 90 92 92 85 90 93 85 50 35 36 31 40 56 18 24 13 55 51 33 44 34 27 6 5 4 24 63 88
7 8 12 22 32 94 88 90 85 89 100 98 87 83 93 90 96 96 84 90 93 96 96 88 82 74 51 50 57 27 20 35 71 91 76 32 23 32 20 4 5 4 28 65 89
8 7 22 33 46 67 71 83 89 78 68 73 88 95 83 91 87 98 96 85 90 97 97 68 53 68 74 39 60 36 32 14 13 29 90 82 52 30 12 5 5 6 37 68 89
10 9 28 26 47 45 52 56 67 79 88 94 92 90 95 99 98 97 100 93 96 97 96 71 49 66 53 45 40 69 72 23 37 75 41 28 28 34 14 5 5 10 44 71 89
9 14 21 36 38 42 46 62 74 87 91 91 98 100 100 100 97 100 98 87 98 97 96 65 74 56 84 40 35 50 40 18 19 14 19 67 46 28 7 6 5 15 50 68 92
26 35 24 29 41 59 61 54 79 91 84 93 94 97 97 92 98 98 99 97 97 97 97 95 96 54 78 54 39 25 20 14 15 35 46 32 23 22 8 6 5 24 55 69 92
62 56 36 26 39 52 59 56 67 84 88 92 89 96 97 98 92 98 96 96 94 96 97 96 75 82 89 85 70 51 53 35 21 18 23 23 19 11 6 7 4 30 57 70 93
66 63 48 47 39 51 64 62 63 81 84 89 87 86 100 100 98 96 98 94 96 96 96 96 96 95 77 53 73 78 66 54 61 54 35 27 10 6 6 6 7 34 59 67 92
64 96 87 67 49 46 59 73 73 72 62 79 89 87 86 90 96 96 96 96 96 96 96 96 96 93 56 57 46 56 60 45 39 20 9 10 17 5 6 6 14 35 58 63 89
Wind_Speed
19 21 23 23 22 21 20 19 18 19 20 22 23 23 23 22 22 23 21 22 22 19 17 16 16 16 16 17 17 17 18 23 17 15 21 27 25 25 23 23 25 27 27 32 33
21 22 24 23 22 22 21 20 19 19 21 23 24 24 24 22 21 22 19 16 15 16 18 18 19 19 19 18 17 17 19 14 19 22 22 27 23 25 22 21 26 27 28 34 31
22 22 25 23 22 25 22 22 21 22 24 26 25 25 25 25 24 13 18 19 22 23 22 21 19 17 17 19 19 18 21 20 23 25 25 26 24 23 23 25 27 28 30 32 31
22 25 24 25 28 27 25 23 24 24 25 26 26 26 25 25 20 22 25 23 22 20 19 17 16 14 14 14 17 19 17 23 24 23 20 21 23 24 25 26 29 31 29 31 35
25 28 25 26 29 25 26 27 27 26 25 25 28 28 25 26 28 25 23 22 19 17 16 15 12 11 10 14 18 17 18 20 19 21 23 25 26 28 30 30 33 30 29 30 34
27 28 27 28 26 27 28 29 29 28 28 28 28 28 28 30 23 23 21 20 20 20 18 15 13 12 15 16 17 17 23 23 25 27 29 29 27 30 33 29 29 29 27 30 30
29 29 30 31 27 31 29 32 31 30 29 29 29 30 29 26 24 19 21 25 23 19 18 18 18 19 22 23 25 22 28 33 34 29 26 28 30 30 24 23 22 25 26 26 32
31 29 30 26 32 30 26 34 31 30 30 28 29 30 31 24 17 25 30 26 20 19 20 22 23 25 25 26 28 26 29 28 23 21 23 18 20 24 24 21 23 27 27 30 25
30 30 29 30 28 30 30 31 31 29 26 25 28 26 20 19 26 30 24 19 17 19 18 21 21 22 22 22 23 19 15 14 15 13 18 18 15 22 24 27 27 23 21 26 26
27 27 27 28 28 28 28 29 30 28 24 24 18 21 19 35 31 26 18 15 18 16 15 12 15 13 11 13 4 6 11 11 10 16 22 24 29 23 22 31 28 22 24 24 29
24 24 23 23 24 24 24 25 25 26 23 27 27 32 35 38 26 18 15 16 15 12 9 14 15 10 8 8 9 13 10 16 15 21 26 27 23 22 22 24 25 19 22 26 37
21 20 20 21 21 21 22 22 17 21 35 29 32 26 26 21 19 14 11 16 14 7 9 13 15 11 10 8 8 10 10 13 17 19 20 19 28 23 20 14 9 17 23 36 39
16 16 17 18 19 20 19 16 22 30 33 29 22 22 16 7 8 16 12 21 13 11 8 14 16 19 15 12 9 6 10 13 15 20 24 17 17 9 7 5 13 20 30 32 36
14 14 15 16 17 17 17 18 19 19 18 13 10 8 5 5 8 12 17 12 11 8 10 11 17 15 12 9 10 8 6 12 19 17 5 12 7 8 9 6 12 25 29 31 29
13 13 13 15 16 17 19 18 18 11 4 7 7 6 4 5 8 14 16 13 13 12 11 8 14 15 12 10 8 8 12 19 16 13 14 3 6 4 3 4 19 28 29 26 28
12 13 13 14 16 17 18 12 9 3 5 5 6 7 10 23 22 21 16 13 16 14 14 13 21 17 13 10 9 16 12 18 15 5 3 8 7 4 6 10 25 26 27 26 30
12 13 13 14 14 15 13 10 6 3 6 5 10 17 15 15 16 23 15 17 12 9 6 6 12 11 12 13 12 8 6 3 2 2 3 5 6 8 11 15 29 29 26 27 30
11 12 12 12 12 12 7 9 2 2 9 16 14 20 20 15 16 12 16 14 13 11 11 4 5 5 3 2 3 4 4 1 3 3 3 5 5 4 10 18 26 25 24 27 28
11 11 10 11 10 10 5 3 2 5 8 13 16 15 6 8 7 13 10 12 14 6 4 4 5 5 8 6 4 1 2 5 6 6 3 4 4 4 6 21 23 23 22 25 26
11 11 10 10 9 2 7 5 7 13 14 20 16 8 11 13 13 11 10 10 10 9 8 5 6 9 7 7 7 4 4 2 2 3 4 3 2 4 9 25 24 21 21 25 26
13 12 9 8 8 7 9 6 9 16 15 11 10 12 16 21 24 24 7 14 17 14 7 7 7 6 8 3 4 3 4 2 4 3 2 3 3 5 17 25 23 20 23 27 27
14 13 9 11 11 8 9 9 8 12 12 15 17 15 15 12 13 7 9 10 16 15 8 6 7 8 9 7 6 9 11 7 4 1 4 3 6 8 20 22 20 19 21 24 25
15 13 12 8 9 10 7 9 11 10 9 11 10 9 12 16 10 8 14 16 18 16 5 5 6 5 4 4 6 7 9 8 9 8 8 2 5 16 24 23 20 16 19 22 22
15 10 8 12 11 8 7 10 8 8 9 5 9 11 12 15 12 11 19 17 21 21 13 10 11 10 3 2 8 9 11 9 9 5 5 13 19 18 20 17 16 14 18 21 21
15 14 11 8 7 10 11 12 12 10 7 7 9 10 14 13 22 9 16 21 27 19 14 11 8 11 14 19 20 17 17 15 16 15 11 11 16 19 13 13 12 12 16 18 18
19 16 14 16 12 12 13 12 12 9 12 17 17 16 16 19 20 23 23 24 18 14 9 15 9 7 7 8 14 23 21 21 21 20 24 20 17 6 8 10 8 10 15 17 17
20 13 13 15 13 13 13 12 10 12 14 12 16 19 17 18 22 21 19 20 20 18 13 10 9 3 3 6 10 14 13 13 14 9 7 10 6 6 6 7 6 10 14 16 15
Wind_Direction
326 327 332 336 338 337 335 334 334 332 333 332 332 330 326 322 316 308 306 303 304 303 301 302 297 293 287 282 276 268 259 264 274 259 249 259 268 273 275 270 267 267 264 266 273
318 322 325 331 332 334 332 329 326 327 326 328 332 335 333 329 323 319 311 305 298 299 299 299 299 297 292 282 275 265 260 267 254 248 250 271 274 275 274 271 273 272 269 268 278
306 315 319 326 326 332 325 322 320 324 328 330 328 331 332 329 329 341 326 308 297 295 297 295 291 287 284 279 278 265 259 247 256 255 263 271 274 274 282 281 278 277 286 286 281
300 301 306 309 317 315 327 323 318 318 322 325 325 323 327 331 324 324 315 307 302 297 294 293 289 286 281 272 272 267 266 259 264 269 272 271 276 276 277 280 281 283 280 279 281
291 297 297 305 312 310 311 319 317 312 314 319 320 320 320 324 323 320 314 310 302 294 293 291 287 282 279 260 269 277 262 271 282 281 282 280 280 280 281 284 285 282 280 283 285
300 297 299 304 301 301 303 310 310 305 303 310 315 317 319 318 317 316 314 311 304 295 289 285 284 279 277 278 272 274 280 284 288 289 285 279 281 278 284 283 283 282 284 281 282
298 299 298 297 299 299 295 306 306 302 300 307 311 315 313 316 314 320 318 314 307 296 283 280 280 281 281 280 281 275 282 281 286 288 278 288 280 283 276 279 278 280 283 293 285
293 294 295 289 296 297 292 303 304 299 301 302 306 313 310 310 313 323 317 311 302 293 285 287 286 282 278 280 284 285 289 286 280 276 280 278 276 282 283 280 283 297 288 279 298
295 293 293 292 290 297 291 298 300 298 299 298 306 308 312 310 310 315 311 308 306 306 299 298 294 287 286 277 272 280 264 277 272 271 279 279 279 288 290 286 288 289 289 295 301
296 295 296 296 297 297 297 297 296 295 294 300 308 308 301 304 312 306 305 303 310 307 307 316 328 317 308 280 242 318 289 270 279 295 282 280 286 291 288 288 299 293 287 299 310
299 299 298 299 299 299 298 296 297 301 296 301 304 298 296 295 292 287 293 309 309 308 327 324 338 339 333 312 287 287 294 291 288 275 281 286 284 296 283 282 290 297 302 310 315
303 302 305 304 306 305 304 305 305 300 305 302 301 301 297 294 283 271 282 319 312 308 282 300 305 271 302 285 283 273 276 278 279 276 285 293 296 297 292 289 285 297 309 324 322
307 311 310 310 310 308 305 277 282 299 304 313 307 307 299 275 267 291 294 308 295 290 263 269 281 286 289 294 297 292 288 280 276 291 305 309 303 291 293 266 307 328 328 321 319
318 319 315 310 310 306 298 296 300 310 310 309 307 310 298 280 300 319 311 299 295 286 255 272 260 274 289 294 287 306 296 300 305 311 294 312 289 280 278 270 328 328 322 324 324
325 328 324 321 320 314 316 312 321 329 303 301 316 293 287 278 307 337 326 310 293 277 278 260 278 283 290 273 283 278 307 310 304 296 300 256 249 269 293 272 329 333 331 329 332
331 336 333 326 316 313 314 326 332 21 235 283 302 331 308 336 337 327 317 308 310 293 280 266 268 278 277 273 278 300 303 306 295 288 258 217 217 192 213 304 334 335 335 337 337
333 338 335 328 320 316 313 323 331 209 300 274 329 339 326 317 316 315 314 318 310 311 334 317 290 288 274 282 286 281 322 288 253 205 251 182 227 270 271 300 334 342 340 343 339
328 331 334 332 327 317 311 305 253 292 297 297 321 325 316 296 301 295 310 316 311 304 282 271 269 289 297 291 300 316 282 264 279 331 335 230 239 250 297 330 342 342 346 343 341
315 322 329 330 325 301 303 285 260 303 285 294 315 314 312 317 315 321 317 281 288 284 244 283 264 281 282 282 309 309 261 278 278 277 277 198 200 294 291 338 342 345 345 346 348
306 312 326 325 330 287 277 267 279 284 292 295 305 285 292 304 305 315 307 285 285 274 254 273 284 285 300 273 268 252 289 285 275 318 304 256 167 189 288 340 344 347 350 355 356
303 307 317 313 311 286 269 270 247 279 296 302 283 267 288 292 292 290 256 279 282 275 254 250 251 275 301 238 225 336 276 266 276 235 208 310 251 276 337 343 346 353 354 356 5
301 305 302 297 288 287 281 299 299 296 301 300 298 288 296 324 288 277 256 262 291 294 272 235 263 268 259 272 253 265 270 265 231 254 260 259 281 313 340 343 347 359 356 1 9
291 295 291 272 280 296 292 286 282 291 313 308 306 304 295 305 301 282 289 298 303 301 261 201 234 285 267 256 248 242 258 263 251 268 236 196 290 317 335 341 350 1 0 5 14
278 280 283 282 278 275 298 302 273 267 317 330 318 313 342 333 323 296 299 299 314 309 282 238 246 232 243 291 292 290 291 282 245 229 251 250 277 303 325 334 350 360 8 9 13
261 265 274 257 265 276 289 296 294 298 298 287 313 321 332 330 328 325 316 307 307 304 273 244 256 265 262 260 274 282 287 288 265 261 255 275 285 311 322 336 352 9 19 15 15
251 261 268 274 278 277 280 290 297 283 286 287 295 300 293 300 310 306 299 301 299 298 271 244 250 278 305 276 271 269 277 284 277 269 267 276 293 311 332 343 1 23 26 23 25
246 252 263 265 266 274 282 280 282 290 302 291 298 303 301 309 311 302 294 294 285 278 277 241 237 255 275 327 307 283 277 264 269 266 265 261 297 334 348 353 32 37 36 35 35